| time (UTC) | temp F | wind direction | speed MPH | gust MPH | rain 1hr in | rain 24hr in | rain mn in | humidity % | barometer mb |
| 20260504221523 | 61 | 223 | 13.0 | 23.0 | 0.00 | 0.00 | 0.00 | 52 | 1010.0 |
| 20260504220010 | 61 | 225 | 11.0 | 25.0 | 0.00 | 0.00 | 0.00 | 50 | 1010.1 |
| 20260504213042 | 63 | 295 | 4.0 | 18.0 | 0.00 | 0.00 | 0.00 | 46 | 1010.0 |
| 20260504211521 | 64 | 208 | 15.0 | 31.0 | 0.00 | 0.00 | 0.00 | 44 | 1009.9 |
| 20260504210023 | 64 | 269 | 5.0 | 25.0 | 0.00 | 0.00 | 0.00 | 43 | 1009.9 |
| 20260504203020 | 65 | 360 | 8.0 | 27.0 | 0.00 | 0.00 | 0.00 | 43 | 1009.9 |
| 20260504201526 | 65 | 360 | 8.0 | 25.0 | 0.00 | 0.00 | 0.00 | 43 | 1009.9 |
| 20260504200027 | 66 | 254 | 6.0 | 18.0 | 0.00 | 0.00 | 0.00 | 41 | 1009.9 |
| 20260504193016 | 66 | 232 | 7.0 | 20.0 | 0.00 | 0.00 | 0.00 | 40 | 1010.0 |
| 20260504191521 | 66 | 202 | 11.0 | 22.0 | 0.00 | 0.00 | 0.00 | 38 | 1010.0 |
| 20260504190027 | 67 | 269 | 5.0 | 25.0 | 0.00 | 0.00 | 0.00 | 35 | 1009.9 |
| 20260504184528 | 67 | 225 | 14.0 | 27.0 | 0.00 | 0.00 | 0.00 | 34 | 1010.1 |
| 20260504183019 | 68 | 242 | 10.0 | 28.0 | 0.00 | 0.00 | 0.00 | 33 | 1010.1 |
| 20260504181518 | 68 | 211 | 14.0 | 25.0 | 0.00 | 0.00 | 0.00 | 32 | 1010.3 |
| 20260504174524 | 68 | 265 | 10.0 | 24.0 | 0.00 | 0.00 | 0.00 | 32 | 1010.7 |
| 20260504173035 | 68 | 313 | 5.0 | 23.0 | 0.00 | 0.00 | 0.00 | 32 | 1010.8 |
| 20260504171522 | 67 | 360 | 12.0 | 26.0 | 0.00 | 0.00 | 0.00 | 31 | 1010.9 |
| 20260504081521 | 37 | 320 | 0.0 | 0.0 | 0.00 | 0.00 | 0.00 | 80 | 1012.0 |
| 20260504050018 | 34 | 320 | 0.0 | 0.0 | 0.00 | 0.00 | 0.00 | 80 | 1011.9 |
| 20260504044510 | 34 | 320 | 0.0 | 0.0 | 0.00 | 0.00 | 0.00 | 79 | 1012.0 |
| 20260504043007 | 35 | 320 | 0.0 | 0.0 | 0.00 | 0.00 | 0.00 | 80 | 1012.0 |
| 20260504040025 | 35 | 320 | 0.0 | 0.0 | 0.00 | 0.00 | 0.00 | 75 | 1011.8 |
| 20260504034520 | 36 | 320 | 0.0 | 0.0 | 0.00 | 0.00 | 0.00 | 74 | 1011.8 |
| 20260504033004 | 37 | 319 | 0.0 | 0.0 | 0.00 | 0.00 | 0.00 | 74 | 1011.8 |
| 20260504031524 | 37 | 320 | 0.0 | 0.0 | 0.00 | 0.00 | 0.00 | 73 | 1011.8 |
| 20260504030013 | 37 | 320 | 0.0 | 0.0 | 0.00 | 0.00 | 0.00 | 71 | 1011.7 |
| 20260504024521 | 38 | 320 | 0.0 | 0.0 | 0.00 | 0.00 | 0.00 | 68 | 1011.6 |
| 20260504023022 | 39 | 320 | 0.0 | 0.0 | 0.00 | 0.00 | 0.00 | 66 | 1011.5 |
| 20260504021506 | 40 | 319 | 0.0 | 0.0 | 0.00 | 0.00 | 0.00 | 66 | 1011.4 |
| 20260504020013 | 40 | 319 | 0.0 | 0.0 | 0.00 | 0.00 | 0.00 | 64 | 1011.4 |
| 20260504014516 | 41 | 320 | 0.0 | 0.0 | 0.00 | 0.00 | 0.00 | 63 | 1011.3 |
| 20260504013027 | 41 | 320 | 0.0 | 0.0 | 0.00 | 0.00 | 0.00 | 61 | 1011.3 |
| 20260504011522 | 42 | 320 | 0.0 | 0.0 | 0.00 | 0.00 | 0.00 | 60 | 1011.1 |
| 20260504010009 | 42 | 320 | 0.0 | 0.0 | 0.00 | 0.00 | 0.00 | 55 | 1010.8 |
| 20260504004515 | 44 | 320 | 0.0 | 0.0 | 0.00 | 0.00 | 0.00 | 53 | 1010.5 |
| 20260504003015 | 45 | 320 | 0.0 | 0.0 | 0.00 | 0.00 | 0.00 | 52 | 1010.3 |
| 20260504001521 | 46 | 320 | 0.0 | 0.0 | 0.00 | 0.00 | 0.00 | 44 | 1010.1 |
| 20260504000028 | 48 | 320 | 0.0 | 0.0 | 0.00 | 0.00 | 0.00 | 42 | 1010.0 |
| 20260503234508 | 50 | 320 | 0.0 | 0.0 | 0.00 | 0.00 | 0.00 | 39 | 1009.9 |
| 20260503233012 | 51 | 320 | 0.0 | 0.0 | 0.00 | 0.00 | 0.00 | 37 | 1009.8 |
| 20260503231517 | 52 | 311 | 0.0 | 2.0 | 0.00 | 0.00 | 0.00 | 37 | 1009.8 |
| 20260503230025 | 52 | 331 | 0.0 | 13.0 | 0.00 | 0.00 | 0.00 | 35 | 1009.6 |
| 20260503224527 | 53 | 300 | 7.0 | 19.0 | 0.00 | 0.00 | 0.00 | 35 | 1009.4 |
| 20260503223012 | 53 | 272 | 2.0 | 12.0 | 0.00 | 0.00 | 0.00 | 36 | 1009.3 |